Location: Home
(42.5358°N, 72.7383°W)
Time: 09:39:04
(UTC-05:00)

Vanguard 2 - Pass Details

Date: 04 December 2021
Orbit: 553 x 2936 km, 32.9° (Epoch: 21 January)

Event Time Altitude Azimuth Distance (km) Brightness Sun altitude
Rises 17:14:16 0° 264° (W) 3,709 12.8 -10.2°
Reaches altitude 10° 17:16:51 10° 253° (WSW) 3,025 12.2 -10.6°
Maximum altitude 17:23:20 30° 195° (SSW) 2,482 10.5 -11.7°
Drops below altitude 10° 17:33:01 10° 141° (SE) 4,605 11.3 -13.4°
Sets 17:38:06 0° 133° (SE) 6,001 11.8 -14.3°
